QPF
0.00 0.00 0.00 0.00 0.00 0.00 0.00 0.00 0.00 0.00 0.00 0.00 0.00 0.00 0.00 0.00 0.00 0.00 0.00 0.00 0.00 0.00 0.00 0.00 0.00 0.00 0.00 0.00 0.00 0.00 0.00 0.00 0.00 0.00 0.00 0.00 0.00 0.00 0.00 0.00 0.00 0.00
0.00 0.00 0.00 0.00 0.00 0.00 0.00 0.00 0.00 0.00 0.00 0.00 0.00 0.00 0.00 0.00 0.00 0.00 0.00 0.00 0.00 0.00 0.00 0.00 0.00 0.00 0.00 0.00 0.00 0.00 0.00 0.00 0.00 0.00 0.00 0.00 0.00 0.00 0.00 0.00 0.00 0.00
0.00 0.00 0.00 0.00 0.00 0.00 0.00 0.00 0.00 0.00 0.00 0.00 0.00 0.00 0.00 0.00 0.00 0.00 0.00 0.00 0.00 0.00 0.00 0.00 0.00 0.00 0.00 0.00 0.00 0.00 0.00 0.00 0.00 0.00 0.00 0.00 0.00 0.00 0.00 0.00 0.00 0.00
0.00 0.00 0.00 0.00 0.00 0.00 0.00 0.00 0.00 0.00 0.00 0.00 0.00 0.00 0.00 0.00 0.00 0.00 0.00 0.00 0.00 0.00 0.00 0.00 0.00 0.00 0.00 0.00 0.00 0.00 0.00 0.00 0.00 0.00 0.00 0.00 0.00 0.00 0.00 0.00 0.00 0.00
0.00 0.00 0.00 0.00 0.00 0.00 0.00 0.00 0.00 0.00 0.00 0.00 0.00 0.00 0.00 0.00 0.00 0.00 0.00 0.00 0.00 0.00 0.00 0.00 0.00 0.00 0.00 0.00 0.00 0.00 0.00 0.00 0.00 0.00 0.00 0.00 0.00 0.00 0.00 0.00 0.00 0.00
0.00 0.00 0.00 0.00 0.00 0.00 0.00 0.00 0.00 0.00 0.00 0.00 0.00 0.00 0.00 0.00 0.00 0.00 0.00 0.00 0.00 0.00 0.00 0.00 0.00 0.00 0.00 0.00 0.00 0.00 0.00 0.00 0.00 0.00 0.00 0.00 0.00 0.00 0.00 0.00 0.00 0.00
0.00 0.00 0.00 0.00 0.00 0.00 0.00 0.00 0.00 0.00 0.00 0.00 0.00 0.00 0.00 0.00 0.00 0.00 0.00 0.00 0.00 0.00 0.00 0.00 0.00 0.00 0.00 0.00 0.00 0.00 0.00 0.00 0.00 0.00 0.00 0.00 0.00 0.00 0.00 0.00 0.00 0.00
0.00 0.00 0.00 0.00 0.00 0.00 0.00 0.00 0.00 0.00 0.00 0.00 0.00 0.00 0.00 0.00 0.00 0.00 0.00 0.00 0.00 0.00 0.00 0.00 0.00 0.00 0.00 0.00 0.00 0.00 0.00 0.00 0.00 0.00 0.00 0.00 0.00 0.00 0.00 0.00 0.00 0.00
0.00 0.00 0.00 0.00 0.00 0.00 0.00 0.00 0.00 0.00 0.00 0.00 0.00 0.00 0.00 0.00 0.00 0.00 0.00 0.00 0.00 0.00 0.00 0.00 0.00 0.00 0.00 0.00 0.00 0.00 0.00 0.00 0.00 0.00 0.00 0.00 0.00 0.00 0.00 0.00 0.00 0.00
0.00 0.00 0.00 0.00 0.00 0.00 0.00 0.00 0.00 0.00 0.00 0.00 0.00 0.00 0.00 0.00 0.00 0.00 0.00 0.00 0.00 0.00 0.00 0.00 0.00 0.00 0.00 0.00 0.00 0.00 0.00 0.00 0.00 0.00 0.00 0.00 0.00 0.00 0.00 0.00 0.00 0.00
0.00 0.00 0.00 0.00 0.00 0.00 0.00 0.00 0.00 0.00 0.00 0.00 0.00 0.00 0.00 0.00 0.00 0.00 0.00 0.00 0.00 0.00 0.00 0.00 0.00 0.00 0.00 0.00 0.00 0.00 0.00 0.00 0.00 0.00 0.00 0.00 0.00 0.00 0.00 0.00 0.00 0.00
0.00 0.00 0.00 0.00 0.00 0.00 0.00 0.00 0.00 0.00 0.00 0.00 0.00 0.00 0.00 0.00 0.00 0.00 0.00 0.00 0.00 0.00 0.00 0.00 0.00 0.00 0.00 0.00 0.00 0.00 0.00 0.00 0.00 0.00 0.00 0.00 0.00 0.00 0.00 0.00 0.00 0.00
0.00 0.00 0.00 0.00 0.00 0.00 0.00 0.00 0.00 0.00 0.00 0.00 0.00 0.00 0.00 0.00 0.00 0.00 0.00 0.00 0.00 0.00 0.00 0.00 0.00 0.00 0.00 0.00 0.00 0.00 0.00 0.00 0.00 0.00 0.00 0.00 0.00 0.00 0.00 0.00 0.00 0.00
0.00 0.00 0.00 0.00 0.00 0.00 0.00 0.00 0.00 0.00 0.00 0.00 0.00 0.00 0.00 0.00 0.00 0.00 0.00 0.00 0.00 0.00 0.00 0.00 0.00 0.00 0.00 0.00 0.00 0.00 0.00 0.00 0.00 0.00 0.00 0.00 0.00 0.00 0.00 0.00 0.00 0.00
0.00 0.00 0.00 0.00 0.00 0.00 0.00 0.00 0.00 0.00 0.00 0.00 0.00 0.00 0.00 0.00 0.00 0.00 0.00 0.00 0.00 0.00 0.00 0.00 0.00 0.00 0.00 0.00 0.00 0.00 0.00 0.00 0.00 0.00 0.00 0.00 0.00 0.00 0.00 0.00 0.00 0.00
0.00 0.00 0.00 0.00 0.00 0.00 0.00 0.00 0.00 0.00 0.00 0.00 0.00 0.00 0.00 0.00 0.00 0.00 0.00 0.00 0.00 0.00 0.00 0.00 0.00 0.00 0.00 0.00 0.00 0.00 0.00 0.00 0.00 0.00 0.00 0.00 0.00 0.00 0.00 0.00 0.00 0.00
0.00 0.00 0.00 0.00 0.00 0.00 0.00 0.00 0.00 0.00 0.00 0.00 0.00 0.00 0.00 0.00 0.00 0.00 0.00 0.00 0.00 0.00 0.00 0.00 0.00 0.00 0.00 0.00 0.00 0.00 0.00 0.00 0.00 0.00 0.00 0.00 0.00 0.00 0.00 0.00 0.00 0.00
0.00 0.00 0.00 0.00 0.00 0.00 0.00 0.00 0.00 0.00 0.00 0.00 0.00 0.00 0.00 0.00 0.00 0.00 0.00 0.00 0.00 0.00 0.00 0.00 0.00 0.00 0.00 0.00 0.00 0.00 0.00 0.00 0.00 0.00 0.00 0.00 0.00 0.00 0.00 0.00 0.00 0.00
0.00 0.00 0.00 0.00 0.00 0.00 0.00 0.00 0.00 0.00 0.00 0.00 0.00 0.00 0.00 0.00 0.00 0.00 0.00 0.00 0.00 0.00 0.00 0.00 0.00 0.00 0.00 0.00 0.00 0.00 0.00 0.00 0.00 0.00 0.00 0.00 0.00 0.00 0.00 0.00 0.00 0.00
0.00 0.00 0.00 0.00 0.00 0.00 0.00 0.00 0.00 0.00 0.00 0.00 0.00 0.00 0.00 0.00 0.00 0.00 0.00 0.00 0.00 0.00 0.00 0.00 0.00 0.00 0.00 0.00 0.00 0.00 0.00 0.00 0.00 0.00 0.00 0.00 0.00 0.00 0.00 0.00 0.00 0.00
0.00 0.00 0.00 0.00 0.00 0.00 0.00 0.00 0.00 0.00 0.00 0.00 0.00 0.00 0.00 0.00 0.00 0.00 0.00 0.00 0.00 0.00 0.00 0.00 0.00 0.00 0.00 0.00 0.00 0.00 0.00 0.00 0.00 0.00 0.00 0.00 0.00 0.00 0.00 0.00 0.00 0.00
0.00 0.00 0.00 0.00 0.00 0.00 0.00 0.00 0.00 0.00 0.00 0.00 0.00 0.00 0.00 0.00 0.00 0.00 0.00 0.00 0.00 0.00 0.00 0.00 0.00 0.00 0.00 0.00 0.00 0.00 0.00 0.00 0.00 0.00 0.00 0.00 0.00 0.00 0.00 0.00 0.00 0.00
0.00 0.00 0.00 0.00 0.00 0.00 0.00 0.00 0.00 0.00 0.00 0.00 0.00 0.00 0.00 0.00 0.00 0.00 0.00 0.00 0.00 0.00 0.00 0.00 0.00 0.00 0.00 0.00 0.00 0.00 0.00 0.00 0.00 0.00 0.00 0.00 0.00 0.00 0.00 0.00 0.00 0.00
0.00 0.00 0.00 0.00 0.00 0.00 0.00 0.00 0.00 0.00 0.00 0.00 0.00 0.00 0.00 0.00 0.00 0.00 0.00 0.00 0.00 0.00 0.00 0.00 0.00 0.00 0.00 0.00 0.00 0.00 0.00 0.00 0.00 0.00 0.00 0.00 0.00 0.00 0.00 0.00 0.00 0.00
0.00 0.00 0.00 0.00 0.00 0.00 0.00 0.00 0.00 0.00 0.00 0.00 0.00 0.00 0.00 0.00 0.00 0.00 0.00 0.00 0.00 0.00 0.00 0.00 0.00 0.00 0.00 0.00 0.00 0.00 0.00 0.00 0.00 0.00 0.00 0.00 0.00 0.00 0.00 0.00 0.00 0.00
0.00 0.00 0.00 0.00 0.00 0.00 0.00 0.00 0.00 0.00 0.00 0.00 0.00 0.00 0.00 0.00 0.00 0.00 0.00 0.00 0.00 0.00 0.00 0.00 0.00 0.00 0.00 0.00 0.00 0.00 0.00 0.00 0.00 0.00 0.00 0.00 0.00 0.00 0.00 0.00 0.00 0.00
MSLP
1028.28 1028.44 1028.60 1028.72 1028.96 1029.08 1029.16 1029.24 1029.40 1029.44 1029.64 1029.76 1029.76 1029.92 1029.96 1030.04 1029.96 1029.88 1029.84 1029.72 1029.68 1029.64 1029.56 1029.40 1029.16 1028.92 1028.72 1028.60 1028.56 1028.48 1028.40 1028.36 1028.20 1028.00 1028.00 1027.84 1027.68 1027.60 1027.44 1027.36 1027.28 1027.28
1028.60 1028.68 1028.84 1029.00 1029.16 1029.28 1029.44 1029.48 1029.56 1029.56 1029.68 1029.84 1029.96 1030.08 1030.08 1030.08 1030.08 1030.04 1029.96 1029.92 1029.88 1029.88 1029.80 1029.52 1029.28 1029.04 1028.80 1028.68 1028.60 1028.52 1028.48 1028.44 1028.32 1028.20 1028.16 1028.00 1027.88 1027.76 1027.60 1027.52 1027.40 1027.28
1028.84 1028.84 1028.96 1029.00 1029.20 1029.36 1029.52 1029.68 1029.72 1029.76 1029.84 1030.00 1030.12 1030.16 1030.24 1030.32 1030.32 1030.28 1030.24 1030.20 1030.16 1030.04 1029.80 1029.60 1029.36 1029.16 1029.08 1029.00 1028.92 1028.84 1028.72 1028.52 1028.32 1028.20 1028.16 1028.08 1028.00 1027.84 1027.76 1027.60 1027.40 1027.24
1029.08 1029.12 1029.16 1029.28 1029.36 1029.48 1029.72 1029.76 1029.92 1030.00 1030.08 1030.16 1030.28 1030.40 1030.48 1030.48 1030.48 1030.44 1030.36 1030.28 1030.20 1030.04 1029.84 1029.68 1029.52 1029.44 1029.32 1029.20 1029.08 1029.00 1028.88 1028.80 1028.64 1028.48 1028.28 1028.16 1028.08 1027.96 1027.76 1027.60 1027.44 1027.32
1028.92 1029.08 1029.24 1029.36 1029.52 1029.64 1029.72 1029.72 1029.88 1030.12 1030.20 1030.32 1030.40 1030.44 1030.36 1030.28 1030.20 1030.12 1030.08 1030.12 1030.12 1030.12 1029.96 1029.88 1029.80 1029.68 1029.56 1029.44 1029.28 1029.16 1029.00 1028.92 1028.76 1028.60 1028.44 1028.28 1028.12 1027.96 1027.80 1027.60 1027.44 1027.24
1029.00 1029.08 1029.16 1029.24 1029.36 1029.44 1029.52 1029.68 1029.84 1029.92 1030.00 1030.00 1030.08 1030.20 1030.20 1030.24 1030.28 1030.28 1030.24 1030.24 1030.24 1030.16 1030.04 1029.92 1029.84 1029.72 1029.56 1029.44 1029.28 1029.20 1029.08 1028.92 1028.76 1028.64 1028.52 1028.36 1028.12 1028.00 1027.88 1027.64 1027.48 1027.28
1028.92 1029.08 1029.24 1029.44 1029.56 1029.72 1029.76 1029.88 1029.96 1030.00 1030.08 1030.24 1030.28 1030.28 1030.44 1030.40 1030.40 1030.36 1030.32 1030.32 1030.20 1030.08 1029.96 1029.84 1029.72 1029.60 1029.52 1029.40 1029.32 1029.20 1029.08 1028.96 1028.80 1028.64 1028.52 1028.36 1028.16 1027.92 1027.84 1027.72 1027.56 1027.40
1029.16 1029.36 1029.48 1029.60 1029.56 1029.68 1029.72 1029.88 1030.00 1030.12 1030.28 1030.40 1030.44 1030.52 1030.56 1030.52 1030.48 1030.48 1030.40 1030.32 1030.20 1030.08 1029.96 1029.88 1029.80 1029.64 1029.52 1029.40 1029.28 1029.12 1029.00 1028.88 1028.76 1028.64 1028.52 1028.36 1028.20 1028.00 1027.80 1027.72 1027.56 1027.36
1029.16 1029.24 1029.44 1029.56 1029.68 1029.88 1030.00 1030.12 1030.28 1030.36 1030.52 1030.52 1030.56 1030.56 1030.56 1030.48 1030.44 1030.36 1030.32 1030.24 1030.20 1030.08 1030.00 1029.96 1029.84 1029.72 1029.60 1029.48 1029.36 1029.24 1029.04 1028.88 1028.80 1028.68 1028.56 1028.36 1028.16 1027.96 1027.84 1027.68 1027.44 1027.24
1029.16 1029.44 1029.60 1029.76 1029.84 1030.08 1030.12 1030.24 1030.36 1030.36 1030.44 1030.40 1030.40 1030.40 1030.36 1030.32 1030.32 1030.28 1030.24 1030.20 1030.16 1030.08 1030.04 1029.96 1029.84 1029.72 1029.60 1029.48 1029.40 1029.24 1029.08 1028.88 1028.72 1028.64 1028.48 1028.36 1028.20 1027.96 1027.72 1027.56 1027.40 1027.08
1029.24 1029.48 1029.60 1029.76 1029.92 1030.08 1030.08 1030.16 1030.20 1030.24 1030.28 1030.32 1030.36 1030.36 1030.28 1030.32 1030.28 1030.28 1030.28 1030.20 1030.20 1030.12 1030.04 1029.96 1029.84 1029.72 1029.56 1029.44 1029.32 1029.16 1029.04 1028.84 1028.68 1028.52 1028.36 1028.16 1027.96 1027.80 1027.56 1027.40 1027.20 1027.00
1029.20 1029.40 1029.60 1029.72 1029.84 1029.88 1029.96 1030.04 1030.12 1030.20 1030.28 1030.32 1030.36 1030.36 1030.32 1030.28 1030.32 1030.32 1030.24 1030.24 1030.20 1030.12 1030.04 1029.92 1029.80 1029.64 1029.52 1029.36 1029.20 1029.00 1028.88 1028.72 1028.52 1028.32 1028.12 1027.92 1027.68 1027.52 1027.36 1027.20 1027.04 1026.80
1029.20 1029.36 1029.52 1029.64 1029.72 1029.80 1029.92 1030.08 1030.16 1030.24 1030.28 1030.32 1030.28 1030.28 1030.24 1030.24 1030.28 1030.24 1030.24 1030.20 1030.16 1030.04 1029.96 1029.88 1029.76 1029.64 1029.48 1029.28 1029.12 1028.92 1028.72 1028.48 1028.28 1028.08 1027.88 1027.68 1027.44 1027.32 1027.16 1027.04 1026.92 1026.72
1029.16 1029.32 1029.52 1029.60 1029.72 1029.84 1029.96 1030.04 1030.12 1030.12 1030.20 1030.24 1030.24 1030.24 1030.24 1030.28 1030.24 1030.24 1030.20 1030.20 1030.08 1030.04 1030.00 1029.92 1029.76 1029.64 1029.48 1029.28 1029.04 1028.80 1028.52 1028.32 1028.16 1027.96 1027.68 1027.48 1027.28 1027.12 1027.00 1026.88 1026.72 1026.56
1029.08 1029.40 1029.52 1029.64 1029.72 1029.72 1029.76 1029.88 1030.00 1030.12 1030.20 1030.28 1030.28 1030.32 1030.36 1030.36 1030.36 1030.32 1030.24 1030.20 1030.16 1030.12 1030.08 1029.96 1029.88 1029.72 1029.56 1029.28 1028.92 1028.56 1028.44 1028.20 1028.04 1027.88 1027.72 1027.40 1027.04 1026.84 1026.72 1026.68 1026.48 1026.28
1029.08 1029.28 1029.40 1029.48 1029.44 1029.48 1029.72 1029.88 1030.00 1030.12 1030.24 1030.28 1030.36 1030.44 1030.48 1030.44 1030.44 1030.40 1030.32 1030.28 1030.24 1030.20 1030.12 1030.08 1029.96 1029.88 1029.64 1029.20 1028.84 1028.56 1028.24 1028.04 1027.88 1027.68 1027.52 1027.28 1027.00 1026.72 1026.48 1026.44 1026.28 1026.08
1029.04 1029.16 1029.24 1029.28 1029.52 1029.68 1029.88 1029.96 1030.08 1030.24 1030.32 1030.40 1030.52 1030.56 1030.52 1030.52 1030.48 1030.40 1030.40 1030.36 1030.32 1030.24 1030.20 1030.08 1030.04 1029.92 1029.48 1029.08 1028.76 1028.44 1028.24 1027.96 1027.72 1027.44 1027.32 1027.20 1027.00 1026.76 1026.44 1026.16 1026.04 1025.96
1028.84 1029.08 1029.24 1029.48 1029.64 1029.72 1030.00 1030.16 1030.28 1030.28 1030.36 1030.48 1030.56 1030.56 1030.60 1030.56 1030.52 1030.48 1030.52 1030.40 1030.32 1030.28 1030.20 1030.12 1030.04 1029.80 1029.36 1028.96 1028.56 1028.28 1028.04 1027.84 1027.56 1027.40 1027.16 1027.04 1026.84 1026.64 1026.40 1026.20 1026.00 1025.84
1028.84 1028.96 1029.20 1029.44 1029.64 1029.92 1030.08 1030.16 1030.12 1030.08 1030.24 1030.40 1030.48 1030.64 1030.64 1030.60 1030.60 1030.60 1030.48 1030.44 1030.36 1030.28 1030.16 1030.08 1030.00 1029.72 1029.24 1028.72 1028.36 1028.08 1027.84 1027.64 1027.40 1027.28 1027.12 1026.88 1026.72 1026.60 1026.40 1026.32 1026.16 1025.96
1028.80 1028.96 1029.04 1029.44 1029.80 1029.92 1030.04 1029.96 1029.96 1030.12 1030.40 1030.52 1030.60 1030.60 1030.56 1030.60 1030.56 1030.52 1030.48 1030.44 1030.40 1030.32 1030.16 1030.04 1029.96 1029.64 1029.00 1028.52 1028.16 1027.88 1027.60 1027.36 1027.16 1027.08 1027.00 1026.88 1026.76 1026.64 1026.44 1026.32 1026.16 1025.96
1028.80 1028.96 1029.04 1029.52 1029.80 1029.96 1030.00 1029.96 1030.12 1030.36 1030.40 1030.52 1030.68 1030.68 1030.68 1030.60 1030.56 1030.52 1030.48 1030.48 1030.44 1030.32 1030.20 1029.96 1029.84 1029.36 1028.76 1028.36 1028.04 1027.68 1027.32 1027.08 1027.08 1027.12 1027.00 1026.84 1026.64 1026.44 1026.24 1026.04 1025.96 1025.80
1028.80 1028.92 1029.20 1029.56 1029.80 1029.96 1029.88 1029.92 1030.28 1030.36 1030.44 1030.64 1030.76 1030.80 1030.76 1030.72 1030.72 1030.68 1030.60 1030.48 1030.44 1030.32 1030.12 1029.80 1029.64 1029.24 1028.72 1028.28 1027.84 1027.48 1027.08 1027.08 1027.16 1027.04 1026.84 1026.56 1026.32 1026.12 1025.92 1025.80 1025.68 1025.48
1028.96 1029.04 1029.24 1029.56 1029.92 1029.88 1029.88 1030.16 1030.32 1030.44 1030.64 1030.76 1030.80 1030.84 1030.80 1030.76 1030.76 1030.68 1030.60 1030.48 1030.32 1030.24 1030.08 1029.64 1029.48 1029.20 1028.60 1028.04 1027.64 1027.32 1027.08 1027.00 1026.84 1026.68 1026.48 1026.28 1025.96 1025.72 1025.52 1025.36 1025.20 1025.04
1029.20 1029.36 1029.40 1029.72 1030.04 1029.84 1030.08 1030.40 1030.52 1030.60 1030.68 1030.76 1030.84 1030.76 1030.72 1030.68 1030.64 1030.52 1030.40 1030.36 1030.20 1030.04 1030.00 1029.56 1029.00 1028.84 1028.36 1027.88 1027.56 1027.28 1026.96 1026.72 1026.56 1026.40 1026.12 1025.88 1025.44 1025.20 1025.08 1024.84 1024.72 1024.56
1029.36 1029.60 1029.72 1029.92 1029.92 1030.00 1030.20 1030.28 1030.36 1030.48 1030.60 1030.72 1030.80 1030.76 1030.68 1030.60 1030.52 1030.36 1030.16 1030.08 1030.04 1029.84 1029.56 1029.28 1028.84 1028.60 1028.36 1027.84 1027.40 1027.00 1026.72 1026.40 1026.16 1025.92 1025.56 1025.28 1025.04 1024.64 1024.48 1024.36 1023.96 1023.88
1029.52 1029.68 1029.84 1029.84 1029.76 1030.00 1030.20 1030.28 1030.36 1030.44 1030.52 1030.56 1030.72 1030.72 1030.60 1030.56 1030.48 1030.32 1030.04 1029.72 1029.68 1029.56 1029.40 1029.28 1028.92 1028.40 1028.32 1027.60 1027.08 1026.64 1026.28 1026.04 1025.72 1025.52 1025.16 1024.84 1024.60 1024.24 1023.76 1023.32 1023.20 1022.88
Thickness
5469 5467 5465 5463 5460 5457 5455 5453 5451 5449 5447 5445 5443 5441 5440 5438 5437 5437 5435 5434 5433 5432 5431 5432 5433 5434 5435 5435 5435 5434 5434 5434 5434 5434 5433 5434 5434 5434 5435 5435 5435 5435
5458 5457 5454 5452 5449 5447 5444 5442 5440 5438 5436 5434 5432 5430 5429 5428 5426 5426 5424 5423 5422 5422 5421 5422 5423 5424 5423 5424 5423 5423 5422 5423 5423 5422 5422 5421 5421 5422 5422 5423 5424 5424
5447 5446 5444 5441 5439 5436 5434 5431 5429 5427 5425 5422 5421 5419 5418 5416 5415 5414 5413 5412 5411 5411 5412 5412 5413 5413 5412 5412 5411 5411 5411 5410 5411 5411 5411 5410 5409 5409 5410 5411 5412 5412
5438 5435 5433 5431 5428 5426 5423 5421 5419 5417 5415 5412 5410 5409 5407 5406 5405 5404 5403 5402 5401 5400 5401 5401 5401 5401 5401 5400 5400 5399 5399 5398 5398 5399 5399 5398 5398 5398 5398 5399 5400 5400
5428 5425 5423 5420 5418 5416 5414 5412 5410 5407 5405 5403 5401 5401 5399 5398 5397 5395 5394 5392 5391 5390 5390 5390 5389 5389 5389 5389 5388 5388 5387 5387 5387 5387 5388 5387 5386 5386 5386 5387 5389 5389
5418 5416 5414 5412 5409 5407 5405 5403 5400 5398 5397 5395 5394 5393 5391 5389 5387 5385 5384 5381 5380 5379 5379 5379 5378 5378 5378 5378 5377 5376 5376 5375 5376 5376 5376 5377 5376 5375 5374 5375 5376 5377
5409 5406 5405 5402 5400 5398 5396 5394 5392 5389 5388 5385 5383 5382 5379 5378 5376 5374 5373 5371 5369 5368 5367 5367 5366 5366 5366 5366 5365 5364 5363 5363 5363 5363 5364 5364 5365 5364 5363 5362 5363 5365
5399 5397 5395 5392 5390 5388 5386 5384 5381 5379 5377 5375 5372 5370 5369 5367 5365 5363 5362 5360 5358 5357 5356 5354 5354 5353 5353 5353 5352 5351 5351 5350 5349 5349 5349 5350 5351 5350 5350 5349 5350 5353
5389 5387 5385 5382 5380 5378 5375 5373 5370 5368 5366 5364 5362 5360 5358 5356 5354 5353 5350 5349 5347 5345 5344 5342 5341 5341 5340 5339 5338 5338 5338 5337 5335 5335 5334 5335 5336 5336 5335 5335 5336 5339
5380 5377 5375 5372 5369 5366 5364 5361 5359 5357 5355 5353 5351 5349 5347 5345 5342 5341 5338 5336 5335 5332 5331 5330 5328 5328 5327 5326 5325 5324 5324 5324 5323 5322 5321 5321 5321 5321 5321 5321 5321 5324
5370 5367 5363 5361 5358 5355 5353 5351 5349 5347 5344 5342 5340 5337 5335 5333 5330 5328 5325 5323 5322 5319 5317 5316 5314 5314 5313 5312 5311 5310 5311 5311 5311 5310 5310 5309 5309 5308 5308 5308 5308 5309
5360 5356 5353 5350 5347 5345 5342 5340 5338 5335 5333 5331 5329 5326 5324 5322 5319 5316 5313 5311 5308 5307 5305 5303 5302 5300 5299 5298 5298 5297 5297 5297 5297 5298 5298 5297 5298 5297 5295 5295 5294 5295
5350 5346 5344 5341 5338 5335 5332 5330 5327 5324 5323 5320 5318 5316 5313 5311 5308 5304 5301 5299 5296 5294 5292 5290 5289 5287 5286 5285 5284 5284 5284 5284 5284 5284 5285 5285 5284 5284 5283 5282 5281 5281
5341 5337 5335 5332 5328 5326 5322 5320 5318 5314 5312 5309 5306 5304 5302 5299 5296 5293 5290 5287 5284 5282 5279 5277 5276 5274 5273 5272 5272 5272 5272 5272 5272 5271 5272 5273 5272 5272 5270 5268 5269 5268
5332 5328 5326 5323 5320 5318 5314 5311 5308 5303 5300 5297 5294 5292 5289 5286 5283 5280 5278 5276 5273 5270 5267 5266 5264 5262 5260 5259 5259 5260 5260 5260 5261 5260 5259 5260 5261 5261 5259 5257 5256 5256
5322 5318 5316 5314 5311 5308 5304 5300 5296 5292 5288 5285 5282 5279 5277 5274 5271 5268 5267 5264 5262 5260 5258 5255 5253 5250 5249 5248 5248 5249 5249 5250 5251 5250 5249 5249 5249 5250 5250 5248 5247 5246
5313 5309 5306 5303 5300 5296 5292 5288 5284 5281 5277 5273 5270 5267 5264 5262 5260 5258 5256 5254 5252 5250 5248 5246 5244 5241 5240 5240 5239 5238 5239 5240 5240 5241 5240 5239 5238 5238 5239 5239 5238 5236
5303 5299 5295 5292 5288 5285 5280 5277 5273 5269 5266 5262 5259 5256 5254 5252 5250 5248 5246 5245 5243 5242 5240 5239 5236 5234 5233 5232 5232 5231 5229 5230 5230 5231 5231 5230 5228 5228 5228 5228 5228 5226
5293 5289 5284 5280 5277 5274 5269 5266 5263 5260 5256 5253 5250 5247 5245 5243 5241 5240 5238 5236 5235 5234 5233 5231 5229 5227 5226 5225 5226 5224 5222 5222 5221 5221 5220 5220 5219 5217 5217 5216 5216 5215
5283 5279 5275 5271 5266 5263 5260 5257 5254 5251 5247 5245 5242 5240 5238 5236 5233 5233 5231 5229 5227 5226 5225 5224 5222 5220 5219 5219 5218 5217 5215 5214 5213 5212 5211 5210 5208 5207 5206 5206 5205 5205
5274 5270 5266 5261 5257 5253 5251 5248 5245 5242 5239 5236 5234 5232 5230 5228 5226 5225 5223 5221 5219 5218 5218 5217 5214 5212 5212 5211 5210 5209 5208 5206 5204 5202 5201 5201 5200 5198 5198 5197 5196 5195
5264 5260 5256 5251 5248 5244 5242 5239 5236 5233 5230 5227 5225 5223 5221 5219 5218 5216 5215 5213 5211 5209 5209 5210 5207 5203 5203 5203 5202 5201 5199 5197 5195 5193 5192 5193 5193 5191 5190 5189 5188 5188
5253 5250 5247 5243 5238 5236 5233 5230 5227 5224 5222 5219 5217 5216 5213 5211 5210 5208 5206 5205 5203 5202 5200 5202 5201 5196 5194 5195 5193 5191 5190 5188 5186 5186 5185 5185 5186 5185 5184 5183 5182 5180
5243 5240 5238 5233 5230 5228 5225 5222 5219 5216 5214 5211 5209 5208 5206 5204 5202 5201 5199 5197 5195 5194 5192 5192 5194 5190 5186 5187 5185 5181 5180 5179 5178 5179 5178 5179 5179 5179 5178 5177 5176 5174
5235 5232 5229 5225 5223 5221 5218 5215 5212 5209 5206 5204 5201 5200 5199 5197 5194 5194 5193 5191 5188 5186 5184 5183 5185 5182 5178 5177 5177 5173 5171 5170 5170 5171 5172 5172 5172 5173 5174 5172 5171 5170
5227 5224 5221 5218 5217 5215 5211 5208 5206 5202 5200 5197 5194 5192 5190 5189 5186 5185 5186 5185 5181 5179 5177 5174 5174 5175 5172 5169 5169 5166 5164 5162 5162 5163 5164 5165 5166 5167 5169 5169 5168 5167